Home > Weather > Saint John > Past weeks

Flag for Canada Weather for the Past 2 Weeks in Saint John, New Brunswick, Canada

Now
3 °F

Passing clouds.


Feels Like: -16 °F
Forecast: 3 / 17 °F
Wind: 16 mph from Northwest

Location: Saint John

Current Time: Feb 12, 2016 at 10:35:21 AM

Latest Report: Feb 12, 2016 at 10:00 AM


Visibility: 15 mi

Pressure: 29.96 "Hg

Humidity: 66%

Dew point: -6 °F

Location of Saint JohnLocation

Historic Weather in Saint John — Graph

°F

Saint John Temperature Yesterday

Maximum temperature yesterday: 27 °F (at 8:47 AM)
Minimum temperature yesterday: 10 °F (at 10:00 PM)
Average temperature yesterday: 20 °F

High & Low Weather Summary for the Past Weeks

 TemperatureHumidityPressure
High48 °F (Feb 4, 5:00 AM)100% (Jan 29, 1:00 PM)30.53 "Hg (Jan 29, 1:00 PM)
Low0 °F (Feb 12, 7:00 AM)40% (Feb 2, 12:00 PM)29.26 "Hg (Jan 29, 4:00 PM)
Average27 °F81%29.87 "Hg
* Reported Jan 28 9:00 AM — Feb 12 9:00 AM, Saint John, Weather by CustomWeather, © 2016

Note: Actual official high and low records may vary slightly from our data, if they occured in-between our weather recording intervals... More about our weather records

Advertising

Saint John Weather History for the Previous 24 Hours

 ConditionsComfort  
Time TempWeatherWind HumidityBarometerVisibility
9:00 AM
Fri, Feb 12
1 °FPassing clouds.9 mph71%29.94 "Hg15 mi
8:00 AM1 °FPassing clouds.14 mph71%29.90 "Hg15 mi
7:00 AM0 °FPassing clouds.5 mph84%29.88 "Hg15 mi
6:00 AM5 °FPassing clouds.15 mph72%29.85 "Hg15 mi
5:00 AM7 °FPassing clouds.15 mph72%29.80 "Hg20 mi
4:00 AM9 °FPassing clouds.16 mph78%29.78 "Hg15 mi
3:00 AM12 °FSnow flurries. Mostly cloudy.15 mph79%29.75 "Hg8 mi
2:00 AM14 °FSnow flurries. Passing clouds.12 mph73%29.71 "Hg10 mi
1:00 AM12 °FPassing clouds.14 mph85%29.69 "Hg15 mi
12:45 AM12 °FPassing clouds.12 mph85%29.68 "Hg15 mi
12:00 AM12 °FSnow flurries. Passing clouds.12 mph85%29.67 "Hg15 mi
11:00 PM
Thu, Feb 11
12 °FPassing clouds.9 mph92%29.65 "Hg15 mi
10:00 PM10 °FPassing clouds.5 mph85%29.64 "Hg15 mi
9:00 PM16 °FPartly cloudy.5 mph86%29.63 "Hg15 mi
8:00 PM18 °FPartly cloudy.5 mph79%29.62 "Hg15 mi
7:00 PM19 °FPassing clouds.7 mph86%29.61 "Hg15 mi
6:00 PM19 °FLight snow. Partly cloudy.5 mph86%29.59 "Hg15 mi
5:00 PM25 °FLight snow. Broken clouds.12 mph80%29.56 "Hg15 mi
4:00 PM25 °FLight snow. Mostly cloudy.14 mph74%29.55 "Hg15 mi
3:00 PM25 °FLight snow. Mostly cloudy.10 mph80%29.54 "Hg15 mi
2:00 PM25 °FLight snow. Partly sunny.10 mph86%29.52 "Hg8 mi
1:00 PM25 °FLight snow. Mostly cloudy.15 mph80%29.54 "Hg2 mi
12:00 PM25 °FLight snow. More clouds than sun.13 mph86%29.54 "Hg3 mi
11:00 AM25 °FLight snow. More clouds than sun.12 mph86%29.55 "Hg2 mi
10:00 AM23 °FLight snow. More clouds than sun.9 mph100%29.56 "Hg1 mi
Weather by CustomWeather, © 2016

See weather overviewHow to use our weather pages